| time (UTC) | temp F | wind direction | speed MPH | gust MPH | rain 1hr in | rain 24hr in | rain mn in | humidity % | barometer mb |
| 20260902073043 | 63 | 79 | 0.0 | 0.0 | 0.00 | 0.00 | 0.00 | 78 | 1020.3 |
| 20260902071540 | 61 | 316 | 0.0 | 0.0 | 0.00 | 0.00 | 0.00 | 80 | 1020.5 |
| 20260902070038 | 61 | 313 | 0.0 | 0.0 | 0.00 | 0.00 | 0.00 | 82 | 1020.4 |
| 20260902064535 | 60 | 75 | 0.0 | 0.0 | 0.00 | 0.00 | 0.00 | 82 | 1020.3 |
| 20260902063035 | 60 | 205 | 0.0 | 0.0 | 0.00 | 0.00 | 0.00 | 82 | 1020.4 |
| 20260902061528 | 59 | 204 | 0.0 | 0.0 | 0.00 | 0.00 | 0.00 | 83 | 1020.5 |
| 20260902060032 | 57 | 207 | 0.0 | 0.0 | 0.00 | 0.00 | 0.00 | 86 | 1020.5 |
| 20260902054524 | 55 | 207 | 0.0 | 0.0 | 0.00 | 0.00 | 0.00 | 87 | 1020.5 |
| 20260902053019 | 55 | 207 | 0.0 | 0.0 | 0.00 | 0.00 | 0.00 | 87 | 1020.1 |
| 20260902051516 | 54 | 207 | 0.0 | 0.0 | 0.00 | 0.00 | 0.00 | 87 | 1020.1 |
| 20260902050020 | 54 | 207 | 0.0 | 0.0 | 0.00 | 0.00 | 0.00 | 87 | 1020.1 |
| 20260902044532 | 54 | 207 | 0.0 | 0.0 | 0.00 | 0.00 | 0.00 | 89 | 1019.9 |
| 20260902043011 | 53 | 207 | 0.0 | 0.0 | 0.00 | 0.00 | 0.00 | 87 | 1020.0 |
| 20260902041515 | 53 | 207 | 0.0 | 0.0 | 0.00 | 0.00 | 0.00 | 87 | 1020.0 |
| 20260902040011 | 53 | 207 | 0.0 | 0.0 | 0.00 | 0.00 | 0.00 | 86 | 1020.0 |
| 20260902034510 | 53 | 207 | 0.0 | 0.0 | 0.00 | 0.00 | 0.00 | 87 | 1019.9 |
| 20260902033009 | 53 | 207 | 0.0 | 0.0 | 0.00 | 0.00 | 0.00 | 86 | 1019.9 |
| 20260902031516 | 53 | 207 | 0.0 | 0.0 | 0.00 | 0.00 | 0.00 | 86 | 1019.9 |
| 20260902030008 | 53 | 207 | 0.0 | 0.0 | 0.00 | 0.00 | 0.00 | 86 | 1019.8 |
| 20260902024506 | 54 | 207 | 0.0 | 0.0 | 0.00 | 0.00 | 0.00 | 85 | 1019.8 |
| 20260902023004 | 54 | 207 | 0.0 | 0.0 | 0.00 | 0.00 | 0.00 | 86 | 1019.9 |
| 20260902021503 | 54 | 207 | 0.0 | 0.0 | 0.00 | 0.00 | 0.00 | 84 | 1019.8 |
| 20260902020001 | 55 | 207 | 0.0 | 2.0 | 0.00 | 0.00 | 0.00 | 84 | 1019.8 |
| 20260902014603 | 55 | 207 | 1.0 | 3.0 | 0.00 | 0.00 | 0.00 | 84 | 1019.8 |
| 20260902013102 | 55 | 207 | 1.0 | 2.0 | 0.00 | 0.00 | 0.00 | 85 | 1019.8 |
| 20260902011558 | 55 | 207 | 2.0 | 3.0 | 0.00 | 0.00 | 0.00 | 84 | 1020.0 |
| 20260902010058 | 55 | 207 | 0.0 | 4.0 | 0.00 | 0.00 | 0.00 | 84 | 1020.1 |
| 20260902004554 | 55 | 207 | 0.0 | 2.0 | 0.00 | 0.00 | 0.00 | 83 | 1020.2 |
| 20260902003056 | 56 | 207 | 0.0 | 2.0 | 0.00 | 0.00 | 0.00 | 82 | 1020.1 |
| 20260902001552 | 56 | 207 | 2.0 | 3.0 | 0.00 | 0.00 | 0.00 | 82 | 1020.1 |
| 20260902000051 | 56 | 206 | 0.0 | 2.0 | 0.00 | 0.00 | 0.00 | 82 | 1020.1 |
| 20260901234603 | 56 | 206 | 0.0 | 3.0 | 0.00 | 0.00 | 0.00 | 81 | 1020.1 |
| 20260901233053 | 57 | 206 | 0.0 | 0.0 | 0.00 | 0.00 | 0.00 | 79 | 1020.2 |
| 20260901231544 | 58 | 206 | 1.0 | 3.0 | 0.00 | 0.00 | 0.00 | 77 | 1020.1 |
| 20260901230050 | 58 | 206 | 1.0 | 3.0 | 0.00 | 0.00 | 0.00 | 76 | 1020.1 |
| 20260901224544 | 58 | 206 | 0.0 | 0.0 | 0.00 | 0.00 | 0.00 | 77 | 1020.1 |
| 20260901223041 | 59 | 206 | 0.0 | 2.0 | 0.00 | 0.00 | 0.00 | 76 | 1020.1 |
| 20260901221602 | 59 | 206 | 1.0 | 2.0 | 0.00 | 0.00 | 0.00 | 75 | 1020.0 |
| 20260901220036 | 59 | 206 | 1.0 | 3.0 | 0.00 | 0.00 | 0.00 | 76 | 1020.2 |
| 20260901214536 | 59 | 206 | 1.0 | 3.0 | 0.00 | 0.00 | 0.00 | 77 | 1020.1 |
| 20260901213039 | 59 | 206 | 1.0 | 3.0 | 0.00 | 0.00 | 0.00 | 77 | 1020.2 |
| 20260901211537 | 59 | 206 | 2.0 | 4.0 | 0.00 | 0.00 | 0.00 | 77 | 1020.3 |
| 20260901210038 | 59 | 206 | 3.0 | 4.0 | 0.00 | 0.00 | 0.00 | 77 | 1020.3 |
| 20260901204536 | 59 | 206 | 1.0 | 3.0 | 0.00 | 0.00 | 0.00 | 77 | 1020.3 |
| 20260901203047 | 60 | 206 | 3.0 | 4.0 | 0.00 | 0.00 | 0.00 | 77 | 1020.4 |
| 20260901201544 | 60 | 206 | 1.0 | 3.0 | 0.00 | 0.00 | 0.00 | 77 | 1020.3 |
| 20260901200034 | 60 | 206 | 1.0 | 3.0 | 0.00 | 0.00 | 0.00 | 76 | 1020.1 |
| 20260901194531 | 60 | 206 | 1.0 | 3.0 | 0.00 | 0.00 | 0.00 | 76 | 1020.2 |
| 20260901193032 | 61 | 206 | 2.0 | 4.0 | 0.00 | 0.00 | 0.00 | 75 | 1020.3 |
| 20260901191530 | 61 | 206 | 0.0 | 2.0 | 0.00 | 0.00 | 0.00 | 74 | 1020.2 |
| 20260901190035 | 62 | 206 | 0.0 | 3.0 | 0.00 | 0.00 | 0.00 | 74 | 1020.1 |
| 20260901184530 | 63 | 206 | 1.0 | 2.0 | 0.00 | 0.00 | 0.00 | 72 | 1019.8 |
| 20260901183029 | 64 | 206 | 2.0 | 3.0 | 0.00 | 0.00 | 0.00 | 71 | 1019.6 |
| 20260901181528 | 66 | 208 | 1.0 | 4.0 | 0.00 | 0.00 | 0.00 | 69 | 1019.6 |
| 20260901180028 | 68 | 265 | 0.0 | 2.0 | 0.00 | 0.00 | 0.00 | 65 | 1019.5 |
| 20260901174531 | 70 | 314 | 0.0 | 2.0 | 0.00 | 0.00 | 0.00 | 64 | 1019.4 |
| 20260901173027 | 71 | 314 | 0.0 | 4.0 | 0.00 | 0.00 | 0.00 | 58 | 1019.3 |
| 20260901171526 | 72 | 309 | 0.0 | 1.0 | 0.00 | 0.00 | 0.00 | 55 | 1019.2 |
| 20260901170026 | 73 | 307 | 1.0 | 4.0 | 0.00 | 0.00 | 0.00 | 56 | 1019.3 |
| 20260901164525 | 73 | 317 | 1.0 | 4.0 | 0.00 | 0.00 | 0.00 | 56 | 1019.4 |
| 20260901163024 | 73 | 311 | 1.0 | 4.0 | 0.00 | 0.00 | 0.00 | 57 | 1019.5 |
| 20260901161534 | 74 | 303 | 1.0 | 5.0 | 0.00 | 0.00 | 0.00 | 56 | 1019.4 |
| 20260901160034 | 74 | 296 | 3.0 | 7.0 | 0.00 | 0.00 | 0.00 | 56 | 1019.5 |
| 20260901154523 | 73 | 354 | 2.0 | 6.0 | 0.00 | 0.00 | 0.00 | 55 | 1019.4 |
| 20260901153019 | 74 | 314 | 2.0 | 6.0 | 0.00 | 0.00 | 0.00 | 54 | 1019.4 |
| 20260901151519 | 75 | 347 | 2.0 | 5.0 | 0.00 | 0.00 | 0.00 | 53 | 1019.4 |
| 20260901150018 | 75 | 303 | 4.0 | 7.0 | 0.00 | 0.00 | 0.00 | 53 | 1019.4 |
| 20260901144518 | 76 | 300 | 1.0 | 9.0 | 0.00 | 0.00 | 0.00 | 52 | 1019.4 |
| 20260901143016 | 76 | 292 | 4.0 | 8.0 | 0.00 | 0.00 | 0.00 | 55 | 1019.4 |
| 20260901141514 | 74 | 311 | 1.0 | 7.0 | 0.00 | 0.00 | 0.00 | 58 | 1019.4 |
| 20260901140015 | 74 | 32 | 1.0 | 7.0 | 0.00 | 0.00 | 0.00 | 54 | 1019.6 |
| 20260901134516 | 73 | 77 | 0.0 | 4.0 | 0.00 | 0.00 | 0.00 | 59 | 1019.7 |
| 20260901133011 | 73 | 260 | 2.0 | 6.0 | 0.00 | 0.00 | 0.00 | 57 | 1019.8 |
| 20260901131513 | 75 | 301 | 3.0 | 10.0 | 0.00 | 0.00 | 0.00 | 55 | 1019.8 |
| 20260901130008 | 75 | 280 | 3.0 | 10.0 | 0.00 | 0.00 | 0.00 | 54 | 1020.0 |
| 20260901124505 | 74 | 269 | 6.0 | 10.0 | 0.00 | 0.00 | 0.00 | 58 | 1020.2 |
| 20260901123004 | 74 | 315 | 1.0 | 9.0 | 0.00 | 0.00 | 0.00 | 56 | 1020.1 |
| 20260901121504 | 73 | 3 | 2.0 | 7.0 | 0.00 | 0.00 | 0.00 | 59 | 1020.3 |
| 20260901120003 | 74 | 335 | 3.0 | 9.0 | 0.00 | 0.00 | 0.00 | 59 | 1020.4 |
| 20260901114600 | 73 | 330 | 1.0 | 9.0 | 0.00 | 0.00 | 0.00 | 63 | 1020.5 |
| 20260901113121 | 72 | 303 | 3.0 | 7.0 | 0.00 | 0.00 | 0.00 | 62 | 1020.5 |
| 20260901111654 | 72 | 66 | 1.0 | 5.0 | 0.00 | 0.00 | 0.00 | 59 | 1020.6 |
| 20260901110154 | 71 | 304 | 1.0 | 3.0 | 0.00 | 0.00 | 0.00 | 63 | 1020.7 |
| 20260901104548 | 70 | 297 | 1.0 | 4.0 | 0.00 | 0.00 | 0.00 | 66 | 1020.7 |
| 20260901103050 | 70 | 336 | 1.0 | 4.0 | 0.00 | 0.00 | 0.00 | 63 | 1020.8 |
| 20260901101609 | 69 | 267 | 2.0 | 4.0 | 0.00 | 0.00 | 0.00 | 65 | 1021.0 |
| 20260901100104 | 69 | 295 | 2.0 | 8.0 | 0.00 | 0.00 | 0.00 | 64 | 1021.1 |
| 20260901094547 | 71 | 306 | 1.0 | 7.0 | 0.00 | 0.00 | 0.00 | 62 | 1021.1 |
| 20260901093043 | 71 | 342 | 1.0 | 6.0 | 0.00 | 0.00 | 0.00 | 63 | 1021.1 |
| 20260901091540 | 70 | 312 | 1.0 | 7.0 | 0.00 | 0.00 | 0.00 | 65 | 1021.2 |
| 20260901090040 | 70 | 332 | 4.0 | 9.0 | 0.00 | 0.00 | 0.00 | 66 | 1021.3 |
| 20260901084542 | 70 | 311 | 1.0 | 5.0 | 0.00 | 0.00 | 0.00 | 69 | 1021.1 |
| 20260901083035 | 69 | 318 | 2.0 | 4.0 | 0.00 | 0.00 | 0.00 | 68 | 1021.1 |
| 20260901081525 | 69 | 11 | 2.0 | 5.0 | 0.00 | 0.00 | 0.00 | 67 | 1021.0 |
| 20260901080022 | 68 | 299 | 0.0 | 3.0 | 0.00 | 0.00 | 0.00 | 68 | 1021.0 |
| 20260901074518 | 68 | 297 | 1.0 | 4.0 | 0.00 | 0.00 | 0.00 | 66 | 1020.9 |